STARLINK-31553, 59363

Orbit data source: Space-Track

STARLINK-31553, 59363 is a payload satellite owned by SpaceX/Seattle (US) in LEO that was launched on Sun, 31 Mar 2024 UTC via an FALCON 9 launch vehicle from the Air Force Eastern Test Range (AFETR). Payload-class satellites include a variety of spacecraft equipped with specific instruments for various scientific and technological missions. These include communications satellites like Starlink; space stations such as the ISS; scientific satellites like the Hubble; Earth observation satellites from companies like Planet Labs, Umbra, and HawkEye 360; GPS; miniature CubeSats for education and research; and military/defense satellites.

Loading next visibility...
Identifier
59363, 2024-060R
Orbit
LEO
Country
Flag of USUS
Related business
Manufacturer
SpaceX/Seattle
Mission
Operational Commercial Communications
Bus & Motor
STARLINK V2M, Unknown motor
Mass
730 kg wet, ~700 kg dry
Launch date (UTC)
2024-03-31 (2 years ago)
Launch vehicle
FALCON 9
Launch site
Air Force Eastern Test Range (AFETR)
Object type
Payload
Rocket body
Debris
Shape & HBR
Box + 2 Pan, 17.7 m
Radar Cross Section
33.884 m², Large (>1 m²)

Expand to show TLE details & history
Last TLE update: 2 days ago

TLE from 2 days ago
0 STARLINK-31553
1 59363U 24060R   26171.02847976 -.00002548  00000-0 -83046-4 0  9994
2 59363  43.0032  35.0157 0001328 267.6896  92.3803 15.27598688125797
Epoch: 2026-06-20T00:41Z
TLE epoch observation values (Epoch: 2026-06-20T00:41:00.651Z)
Latitude
-0.00005°
Longitude
116.51395°
Altitude
482.807 km
Speed
7.626 km/s
True Right ascension
02h 20m 03s
True Declination
0° 00' 00"
Sunlit
Object was in daylight at epoch
Visualization orbit readout
Latitude
Unknown
Longitude
Unknown
Altitude
Unknown
Speed
Unknown
Apparent Right ascension
Unknown
Apparent Declination
Unknown
Sunlit
N/A
Visualization observer readout
Local Sidereal Time
23:20:15
Azimuth
Unknown
Elevation
Unknown
Doppler factor
Unknown
Orbital elements
Apogee altitude
485.849 km
Perigee altitude
484.026 km
Semi-major axis
6,863.075 km
Eccentricity
0.00013
Inclination
43.0032°
RAAN
35.0157°
Arg. of periapsis
267.6896°
True anomaly
92.3955°
Mean anomaly
92.3803°
Eccentric anomaly
92.3879°
Mean motion
3.81738 °/min
Orbital period
94.31 mins
BSTAR
-0.000083046
Loading maneuver chart data...
Computing Atmospheric mass density...
Loading historical data...
Loading historical data...
Loading historical data...
Loading historical data...
Loading historical data...
Loading historical data...
Loading historical data...

Documentation

Showing up to 5 results
|